Time,TemperatureF,DewpointF,PressureIn,WindDirection,WindDirectionDegrees,WindSpeedMPH,WindSpeedGustMPH,Humidity,HourlyPrecipIn,Conditions,Clouds,dailyrainin,SoftwareType,DateUTC
2013-06-15 00:04:00,-999.9,-99.9,30.04,North,32767,-999.0,0.0,255,-99.99,,,0.00,Wunderground v.1.15,2013-06-15 05:04:00,
2013-06-15 00:10:00,-999.9,-99.9,30.03,North,32767,-999.0,0.0,255,-99.99,,,0.00,Wunderground v.1.15,2013-06-15 05:10:00,
2013-06-15 00:19:00,58.9,49.9,30.04,ESE,102,0.0,0.0,72,0.00,,,0.00,Wunderground v.1.15,2013-06-15 05:19:00,
2013-06-15 00:29:00,58.7,49.3,30.03,ESE,102,0.0,0.0,71,0.00,,,0.00,Wunderground v.1.15,2013-06-15 05:29:00,
2013-06-15 00:35:00,58.5,49.5,30.03,ESE,102,0.0,0.0,72,0.00,,,0.00,Wunderground v.1.15,2013-06-15 05:35:00,
2013-06-15 00:44:00,58.0,49.4,30.04,ESE,102,0.0,0.0,73,0.00,,,0.00,Wunderground v.1.15,2013-06-15 05:44:00,
2013-06-15 00:55:00,57.7,49.8,30.04,ESE,102,0.0,0.0,75,0.00,,,0.00,Wunderground v.1.15,2013-06-15 05:55:00,
2013-06-15 01:05:00,57.3,50.1,30.04,ESE,103,0.0,0.0,77,0.00,,,0.00,Wunderground v.1.15,2013-06-15 06:05:00,
2013-06-15 01:14:00,57.3,50.1,30.04,ESE,102,0.0,0.0,77,0.00,,,0.00,Wunderground v.1.15,2013-06-15 06:14:00,
2013-06-15 01:24:00,57.4,50.6,30.04,ESE,102,0.0,0.0,78,0.00,,,0.00,Wunderground v.1.15,2013-06-15 06:24:00,
2013-06-15 01:30:00,57.3,50.5,30.04,ESE,102,0.0,0.0,78,0.00,,,0.00,Wunderground v.1.15,2013-06-15 06:30:00,
2013-06-15 01:39:00,57.1,50.3,30.03,ESE,102,0.0,0.0,78,0.00,,,0.00,Wunderground v.1.15,2013-06-15 06:39:00,
2013-06-15 01:50:00,56.6,50.2,30.03,ESE,102,0.0,0.0,79,0.00,,,0.00,Wunderground v.1.15,2013-06-15 06:50:00,
2013-06-15 01:59:00,56.7,50.3,30.03,ESE,102,0.0,0.0,79,0.00,,,0.00,Wunderground v.1.15,2013-06-15 06:59:00,
2013-06-15 02:04:00,56.6,50.2,30.03,ESE,102,0.0,0.0,79,0.00,,,0.00,Wunderground v.1.15,2013-06-15 07:04:00,
2013-06-15 02:14:00,56.3,49.9,30.02,ESE,102,0.0,0.0,79,0.00,,,0.00,Wunderground v.1.15,2013-06-15 07:14:00,
2013-06-15 02:25:00,56.2,49.8,30.02,ESE,102,0.0,0.0,79,0.00,,,0.00,Wunderground v.1.15,2013-06-15 07:25:00,
2013-06-15 02:34:00,56.4,50.3,30.02,ESE,102,0.0,0.0,80,0.00,,,0.00,Wunderground v.1.15,2013-06-15 07:34:00,
2013-06-15 02:45:00,56.9,49.8,30.02,ESE,102,0.0,0.0,77,0.00,,,0.00,Wunderground v.1.15,2013-06-15 07:45:00,
2013-06-15 02:50:00,57.1,49.6,30.03,ESE,102,0.0,0.0,76,0.00,,,0.00,Wunderground v.1.15,2013-06-15 07:50:00,
2013-06-15 02:59:00,57.2,49.7,30.03,ESE,103,0.0,0.0,76,0.00,,,0.00,Wunderground v.1.15,2013-06-15 07:59:00,
2013-06-15 03:05:00,57.9,50.0,30.03,SSW,205,0.0,0.0,75,0.00,,,0.00,Wunderground v.1.15,2013-06-15 08:05:00,
2013-06-15 03:14:00,58.3,51.5,30.05,NNW,345,0.0,0.0,78,0.00,,,0.01,Wunderground v.1.15,2013-06-15 08:14:00,
2013-06-15 03:24:00,57.9,51.8,30.07,North,5,0.0,0.0,80,0.00,,,0.01,Wunderground v.1.15,2013-06-15 08:24:00,
2013-06-15 03:34:00,56.8,51.4,30.08,North,5,0.0,0.0,82,0.00,,,0.01,Wunderground v.1.15,2013-06-15 08:34:00,
2013-06-15 03:45:00,57.3,53.1,30.08,ENE,71,0.0,0.0,86,0.49,,,0.12,Wunderground v.1.15,2013-06-15 08:45:00,
2013-06-15 03:54:00,57.0,53.5,30.08,SW,215,0.0,0.0,88,0.48,,,0.17,Wunderground v.1.15,2013-06-15 08:54:00,
2013-06-15 04:04:00,56.4,52.6,30.07,SW,214,0.0,0.0,87,0.30,,,0.25,Wunderground v.1.15,2013-06-15 09:04:00,
2013-06-15 04:15:00,56.0,52.8,30.07,South,171,0.0,0.0,89,0.12,,,0.27,Wunderground v.1.15,2013-06-15 09:15:00,
2013-06-15 04:24:00,55.9,53.3,30.05,South,169,0.0,0.0,91,0.11,,,0.29,Wunderground v.1.15,2013-06-15 09:24:00,
2013-06-15 04:35:00,55.4,53.1,30.05,East,80,0.0,0.0,92,0.05,,,0.29,Wunderground v.1.15,2013-06-15 09:35:00,
2013-06-15 04:44:00,55.6,53.6,30.05,East,80,0.0,0.0,93,0.00,,,0.29,Wunderground v.1.15,2013-06-15 09:44:00,
2013-06-15 04:54:00,55.3,53.3,30.05,NE,49,0.0,0.0,93,0.00,,,0.29,Wunderground v.1.15,2013-06-15 09:54:00,
2013-06-15 05:04:00,55.3,53.0,30.05,NE,49,0.0,0.0,92,0.00,,,0.29,Wunderground v.1.15,2013-06-15 10:04:00,
2013-06-15 05:14:00,55.5,52.9,30.05,NE,49,0.0,0.0,91,0.21,,,0.31,Wunderground v.1.15,2013-06-15 10:14:00,
2013-06-15 05:19:00,55.5,53.2,30.04,NE,49,0.0,0.0,92,0.20,,,0.33,Wunderground v.1.15,2013-06-15 10:19:00,
2013-06-15 05:24:00,55.4,53.4,30.04,NE,49,0.0,0.0,93,0.24,,,0.35,Wunderground v.1.15,2013-06-15 10:24:00,
2013-06-15 05:30:00,55.3,53.3,30.04,NE,49,0.0,0.0,93,0.21,,,0.37,Wunderground v.1.15,2013-06-15 10:30:00,
2013-06-15 05:39:00,55.5,53.5,30.04,NE,49,0.0,0.0,93,0.25,,,0.40,Wunderground v.1.15,2013-06-15 10:39:00,
2013-06-15 05:49:00,55.7,54.0,30.03,East,82,0.0,0.0,94,0.08,,,0.41,Wunderground v.1.15,2013-06-15 10:49:00,
2013-06-15 05:54:00,55.8,54.1,30.03,SSW,196,0.0,0.0,94,0.05,,,0.41,Wunderground v.1.15,2013-06-15 10:54:00,
2013-06-15 06:04:00,56.1,54.4,30.04,WNW,290,0.0,0.0,94,0.18,,,0.44,Wunderground v.1.15,2013-06-15 11:04:00,
2013-06-15 06:09:00,56.1,54.4,30.03,West,264,0.0,0.0,94,0.09,,,0.44,Wunderground v.1.15,2013-06-15 11:09:00,
2013-06-15 06:15:00,56.2,54.5,30.03,WSW,252,0.0,0.0,94,0.05,,,0.44,Wunderground v.1.15,2013-06-15 11:15:00,
2013-06-15 06:24:00,56.6,54.9,30.02,SSE,164,0.0,0.0,94,0.00,,,0.44,Wunderground v.1.15,2013-06-15 11:24:00,
2013-06-15 06:34:00,56.9,55.2,30.03,SW,229,0.0,0.0,94,0.00,,,0.45,Wunderground v.1.15,2013-06-15 11:34:00,
2013-06-15 06:40:00,57.1,55.1,30.02,West,271,0.0,0.0,93,0.00,,,0.45,Wunderground v.1.15,2013-06-15 11:40:00,
2013-06-15 06:50:00,56.9,54.9,30.00,WNW,286,0.0,0.0,93,0.00,,,0.45,Wunderground v.1.15,2013-06-15 11:50:00,
2013-06-15 06:59:00,57.1,55.4,30.00,NE,52,0.0,0.0,94,0.00,,,0.45,Wunderground v.1.15,2013-06-15 11:59:00,
2013-06-15 07:04:00,57.2,55.5,30.00,North,5,0.0,0.0,94,0.00,,,0.45,Wunderground v.1.15,2013-06-15 12:04:00,
2013-06-15 07:15:00,58.1,56.4,30.00,SW,224,1.0,5.0,94,0.00,,,0.46,Wunderground v.1.15,2013-06-15 12:15:00,
2013-06-15 07:24:00,58.1,56.4,29.99,SSE,161,0.0,1.0,94,0.09,,,0.47,Wunderground v.1.15,2013-06-15 12:24:00,
2013-06-15 07:30:00,58.1,56.4,29.99,NE,40,0.0,2.0,94,0.08,,,0.48,Wunderground v.1.15,2013-06-15 12:30:00,
2013-06-15 07:35:00,58.0,56.3,29.99,West,259,0.0,2.0,94,0.08,,,0.48,Wunderground v.1.15,2013-06-15 12:35:00,
2013-06-15 07:40:00,58.0,56.3,29.99,NNW,347,1.0,1.0,94,0.07,,,0.49,Wunderground v.1.15,2013-06-15 12:40:00,
2013-06-15 07:45:00,57.7,56.0,29.99,WSW,243,1.0,1.0,94,0.07,,,0.49,Wunderground v.1.15,2013-06-15 12:45:00,
2013-06-15 07:54:00,57.9,56.5,29.98,NNW,346,0.0,0.0,95,0.06,,,0.50,Wunderground v.1.15,2013-06-15 12:54:00,
2013-06-15 08:04:00,57.7,56.3,29.98,NE,34,0.0,0.0,95,0.04,,,0.51,Wunderground v.1.15,2013-06-15 13:04:00,
2013-06-15 08:09:00,58.0,56.6,29.98,NE,44,0.0,0.0,95,0.04,,,0.51,Wunderground v.1.15,2013-06-15 13:09:00,
2013-06-15 08:14:00,58.3,57.2,29.97,NE,44,0.0,0.0,96,0.04,,,0.51,Wunderground v.1.15,2013-06-15 13:14:00,
2013-06-15 08:19:00,58.5,57.1,29.97,WSW,257,0.0,0.0,95,0.04,,,0.52,Wunderground v.1.15,2013-06-15 13:19:00,
2013-06-15 08:24:00,58.6,57.2,29.97,WNW,285,0.0,0.0,95,0.04,,,0.52,Wunderground v.1.15,2013-06-15 13:24:00,
2013-06-15 08:34:00,59.1,57.7,29.97,NW,318,0.0,0.0,95,0.00,,,0.52,Wunderground v.1.15,2013-06-15 13:34:00,
2013-06-15 08:40:00,59.1,57.7,29.97,NW,325,0.0,0.0,95,0.00,,,0.52,Wunderground v.1.15,2013-06-15 13:40:00,
2013-06-15 08:45:00,59.6,58.2,29.97,NNW,335,0.0,0.0,95,0.00,,,0.52,Wunderground v.1.15,2013-06-15 13:45:00,
2013-06-15 08:54:00,59.8,58.7,29.97,NW,309,0.0,0.0,96,0.00,,,0.52,Wunderground v.1.15,2013-06-15 13:54:00,
2013-06-15 09:00:00,59.7,58.3,29.97,WSW,242,0.0,0.0,95,0.00,,,0.52,Wunderground v.1.15,2013-06-15 14:00:00,
2013-06-15 09:09:00,60.2,58.8,29.97,SW,223,0.0,0.0,95,0.00,,,0.52,Wunderground v.1.15,2013-06-15 14:09:00,
2013-06-15 09:19:00,60.0,58.6,29.96,SE,136,0.0,1.0,95,0.00,,,0.52,Wunderground v.1.15,2013-06-15 14:19:00,
2013-06-15 09:29:00,60.2,58.8,29.96,South,186,1.0,1.0,95,0.00,,,0.52,Wunderground v.1.15,2013-06-15 14:29:00,
2013-06-15 09:35:00,60.6,59.2,29.96,SE,145,0.0,1.0,95,0.00,,,0.52,Wunderground v.1.15,2013-06-15 14:35:00,
2013-06-15 09:40:00,60.8,59.4,29.96,SSE,154,0.0,0.0,95,0.00,,,0.52,Wunderground v.1.15,2013-06-15 14:40:00,
2013-06-15 09:49:00,61.5,60.1,29.96,WNW,296,0.0,0.0,95,0.00,,,0.52,Wunderground v.1.15,2013-06-15 14:49:00,
2013-06-15 10:00:00,61.8,60.4,29.97,East,80,1.0,1.0,95,0.00,,,0.52,Wunderground v.1.15,2013-06-15 15:00:00,
2013-06-15 10:09:00,62.3,60.8,29.97,SE,135,0.0,0.0,95,0.00,,,0.52,Wunderground v.1.15,2013-06-15 15:09:00,
2013-06-15 10:14:00,62.6,60.8,29.97,SW,231,0.0,0.0,94,0.00,,,0.52,Wunderground v.1.15,2013-06-15 15:14:00,
2013-06-15 10:19:00,63.1,61.3,29.97,SW,229,0.0,0.0,94,0.00,,,0.52,Wunderground v.1.15,2013-06-15 15:19:00,
2013-06-15 10:24:00,63.2,61.1,29.97,SW,229,0.0,0.0,93,0.00,,,0.52,Wunderground v.1.15,2013-06-15 15:24:00,
2013-06-15 10:34:00,63.9,61.5,29.97,SSW,209,1.0,1.0,92,0.00,,,0.52,Wunderground v.1.15,2013-06-15 15:34:00,
2013-06-15 10:44:00,64.2,61.2,29.98,SW,215,1.0,2.0,90,0.00,,,0.53,Wunderground v.1.15,2013-06-15 15:44:00,
2013-06-15 10:55:00,64.6,61.6,29.97,ESE,119,1.0,4.0,90,0.00,,,0.53,Wunderground v.1.15,2013-06-15 15:55:00,
2013-06-15 11:05:00,65.7,62.4,29.97,East,89,1.0,5.0,89,0.00,,,0.53,Wunderground v.1.15,2013-06-15 16:05:00,
2013-06-15 11:14:00,66.8,63.1,29.96,ESE,123,2.0,3.0,88,0.00,,,0.53,Wunderground v.1.15,2013-06-15 16:14:00,
2013-06-15 11:24:00,66.8,63.5,29.97,WSW,237,4.0,4.0,89,0.00,,,0.53,Wunderground v.1.15,2013-06-15 16:24:00,
2013-06-15 11:34:00,67.3,63.6,29.98,SSW,203,3.0,7.0,88,0.00,,,0.53,Wunderground v.1.15,2013-06-15 16:34:00,
2013-06-15 11:45:00,67.6,63.3,29.98,SW,221,3.0,4.0,86,0.00,,,0.53,Wunderground v.1.15,2013-06-15 16:45:00,
2013-06-15 11:55:00,68.3,63.3,29.98,SW,225,2.0,5.0,84,0.00,,,0.53,Wunderground v.1.15,2013-06-15 16:55:00,
2013-06-15 12:05:00,69.3,64.6,29.98,ESE,105,2.0,3.0,85,0.00,,,0.53,Wunderground v.1.15,2013-06-15 17:05:00,
2013-06-15 12:14:00,69.6,64.2,29.98,SSW,205,2.0,2.0,83,0.00,,,0.53,Wunderground v.1.15,2013-06-15 17:14:00,
2013-06-15 12:19:00,70.2,64.4,29.98,SE,131,2.0,2.0,82,0.00,,,0.53,Wunderground v.1.15,2013-06-15 17:19:00,
2013-06-15 12:29:00,70.6,64.5,29.97,SW,223,2.0,2.0,81,0.00,,,0.53,Wunderground v.1.15,2013-06-15 17:29:00,
2013-06-15 12:39:00,71.5,65.0,29.97,SSW,199,2.0,4.0,80,0.00,,,0.53,Wunderground v.1.15,2013-06-15 17:39:00,
2013-06-15 12:45:00,71.7,66.3,29.97,SSW,199,2.0,5.0,83,0.00,,,0.53,Wunderground v.1.15,2013-06-15 17:45:00,
2013-06-15 12:55:00,71.6,65.1,29.97,SW,219,4.0,8.0,80,0.00,,,0.53,Wunderground v.1.15,2013-06-15 17:55:00,
2013-06-15 13:04:00,71.7,65.2,29.97,SW,221,4.0,5.0,80,0.00,,,0.53,Wunderground v.1.15,2013-06-15 18:04:00,
2013-06-15 13:14:00,71.9,65.0,29.97,SW,227,4.0,6.0,79,0.00,,,0.53,Wunderground v.1.15,2013-06-15 18:14:00,
2013-06-15 13:24:00,72.5,64.9,29.97,SSW,207,4.0,4.0,77,0.00,,,0.53,Wunderground v.1.15,2013-06-15 18:24:00,
2013-06-15 13:29:00,72.7,65.1,29.97,SSW,197,4.0,4.0,77,0.00,,,0.53,Wunderground v.1.15,2013-06-15 18:29:00,
2013-06-15 13:39:00,72.8,65.5,29.98,West,269,6.0,7.0,78,0.00,,,0.53,Wunderground v.1.15,2013-06-15 18:39:00,
2013-06-15 13:45:00,72.9,64.9,29.97,WSW,248,6.0,7.0,76,0.00,,,0.53,Wunderground v.1.15,2013-06-15 18:45:00,
2013-06-15 13:55:00,73.4,65.7,29.97,SW,223,3.0,5.0,77,0.00,,,0.53,Wunderground v.1.15,2013-06-15 18:55:00,
2013-06-15 14:05:00,73.8,65.4,29.96,SW,223,3.0,7.0,75,0.00,,,0.53,Wunderground v.1.15,2013-06-15 19:05:00,
2013-06-15 14:14:00,74.3,65.9,29.96,SSE,152,3.0,4.0,75,0.00,,,0.53,Wunderground v.1.15,2013-06-15 19:14:00,
2013-06-15 14:24:00,74.6,65.8,29.96,West,264,1.0,1.0,74,0.00,,,0.53,Wunderground v.1.15,2013-06-15 19:24:00,
2013-06-15 14:34:00,74.4,66.3,29.95,ENE,61,2.0,2.0,76,0.00,,,0.53,Wunderground v.1.15,2013-06-15 19:34:00,
2013-06-15 14:39:00,74.3,67.0,29.95,SW,217,1.0,1.0,78,0.00,,,0.53,Wunderground v.1.15,2013-06-15 19:39:00,
2013-06-15 14:50:00,74.5,67.2,29.95,SE,124,1.0,1.0,78,0.00,,,0.53,Wunderground v.1.15,2013-06-15 19:50:00,
2013-06-15 14:59:00,74.7,67.0,29.95,SE,136,0.0,0.0,77,0.00,,,0.53,Wunderground v.1.15,2013-06-15 19:59:00,
2013-06-15 15:05:00,74.6,67.7,29.95,SE,136,0.0,0.0,79,0.00,,,0.53,Wunderground v.1.15,2013-06-15 20:05:00,
2013-06-15 15:14:00,74.8,67.1,29.94,SW,219,1.0,1.0,77,0.00,,,0.53,Wunderground v.1.15,2013-06-15 20:14:00,
2013-06-15 15:24:00,75.1,67.0,29.94,SSW,207,2.0,4.0,76,0.00,,,0.53,Wunderground v.1.15,2013-06-15 20:24:00,
2013-06-15 15:34:00,75.5,67.8,29.93,ESE,115,2.0,3.0,77,0.00,,,0.53,Wunderground v.1.15,2013-06-15 20:34:00,
2013-06-15 15:45:00,76.6,68.1,29.92,SSE,157,1.0,1.0,75,0.00,,,0.53,Wunderground v.1.15,2013-06-15 20:45:00,
2013-06-15 15:55:00,77.1,68.2,29.92,SSW,209,2.0,2.0,74,0.00,,,0.53,Wunderground v.1.15,2013-06-15 20:55:00,
2013-06-15 16:04:00,77.3,68.0,29.91,East,99,1.0,2.0,73,0.00,,,0.53,Wunderground v.1.15,2013-06-15 21:04:00,
2013-06-15 16:14:00,76.9,68.0,29.92,SSE,157,2.0,5.0,74,0.00,,,0.53,Wunderground v.1.15,2013-06-15 21:14:00,
2013-06-15 16:24:00,77.9,68.5,29.91,SSE,161,1.0,2.0,73,0.00,,,0.53,Wunderground v.1.15,2013-06-15 21:24:00,
2013-06-15 16:34:00,77.3,68.4,29.90,SSW,209,2.0,3.0,74,0.00,,,0.53,Wunderground v.1.15,2013-06-15 21:34:00,
2013-06-15 16:40:00,77.6,68.7,29.90,SSW,213,3.0,3.0,74,0.00,,,0.53,Wunderground v.1.15,2013-06-15 21:40:00,
2013-06-15 16:50:00,77.2,67.5,29.89,SSW,207,2.0,5.0,72,0.00,,,0.53,Wunderground v.1.15,2013-06-15 21:50:00,
2013-06-15 16:55:00,77.3,68.0,29.88,SW,217,3.0,6.0,73,0.00,,,0.53,Wunderground v.1.15,2013-06-15 21:55:00,
2013-06-15 16:59:00,77.4,68.5,29.88,SSE,150,3.0,9.0,74,0.00,,,0.53,Wunderground v.1.15,2013-06-15 21:59:00,
2013-06-15 17:04:00,77.7,68.4,29.87,SSW,192,1.0,9.0,73,0.00,,,0.53,Wunderground v.1.15,2013-06-15 22:04:00,
2013-06-15 17:14:00,77.6,68.7,29.87,NNW,338,1.0,3.0,74,0.00,,,0.53,Wunderground v.1.15,2013-06-15 22:14:00,
2013-06-15 17:24:00,77.7,68.7,29.86,SW,215,2.0,3.0,74,0.00,,,0.53,Wunderground v.1.15,2013-06-15 22:24:00,
2013-06-15 17:34:00,78.3,68.9,29.85,South,175,2.0,2.0,73,0.00,,,0.53,Wunderground v.1.15,2013-06-15 22:34:00,
2013-06-15 17:45:00,79.6,67.2,29.84,SE,131,2.0,2.0,66,0.00,,,0.53,Wunderground v.1.15,2013-06-15 22:45:00,
2013-06-15 17:55:00,79.2,67.3,29.84,SE,140,2.0,2.0,67,0.00,,,0.53,Wunderground v.1.15,2013-06-15 22:55:00,
2013-06-15 18:05:00,78.6,68.8,29.85,SW,227,1.0,3.0,72,0.00,,,0.53,Wunderground v.1.15,2013-06-15 23:05:00,
2013-06-15 18:14:00,77.8,68.0,29.86,South,178,4.0,7.0,72,0.00,,,0.53,Wunderground v.1.15,2013-06-15 23:14:00,
2013-06-15 18:24:00,79.1,68.5,29.85,North,355,2.0,3.0,70,0.00,,,0.53,Wunderground v.1.15,2013-06-15 23:24:00,
2013-06-15 18:34:00,78.8,68.2,29.84,SSW,212,2.0,2.0,70,0.00,,,0.53,Wunderground v.1.15,2013-06-15 23:34:00,
2013-06-15 18:45:00,79.2,68.6,29.83,SE,127,1.0,2.0,70,0.00,,,0.53,Wunderground v.1.15,2013-06-15 23:45:00,
2013-06-15 18:55:00,78.0,67.8,29.83,SE,146,1.0,1.0,71,0.00,,,0.53,Wunderground v.1.15,2013-06-15 23:55:00,
2013-06-15 19:04:00,77.7,68.0,29.83,SE,138,1.0,1.0,72,0.00,,,0.53,Wunderground v.1.15,2013-06-16 00:04:00,
2013-06-15 19:14:00,77.2,68.3,29.83,SSE,161,1.0,2.0,74,0.00,,,0.53,Wunderground v.1.15,2013-06-16 00:14:00,
2013-06-15 19:24:00,76.6,68.5,29.82,SSE,148,0.0,0.0,76,0.00,,,0.53,Wunderground v.1.15,2013-06-16 00:24:00,
2013-06-15 19:34:00,76.3,68.6,29.82,South,171,0.0,1.0,77,0.00,,,0.53,Wunderground v.1.15,2013-06-16 00:34:00,
2013-06-15 19:40:00,76.3,68.6,29.82,SE,130,0.0,0.0,77,0.00,,,0.53,Wunderground v.1.15,2013-06-16 00:40:00,
2013-06-15 19:45:00,76.3,68.6,29.82,WSW,246,0.0,0.0,77,0.00,,,0.53,Wunderground v.1.15,2013-06-16 00:45:00,
2013-06-15 19:55:00,76.0,68.6,29.83,East,96,0.0,0.0,78,0.00,,,0.53,Wunderground v.1.15,2013-06-16 00:55:00,
2013-06-15 20:04:00,75.6,68.6,29.82,NNW,344,0.0,0.0,79,0.00,,,0.53,Wunderground v.1.15,2013-06-16 01:04:00,
2013-06-15 20:14:00,75.3,68.3,29.83,NNE,31,0.0,1.0,79,0.00,,,0.53,Wunderground v.1.15,2013-06-16 01:14:00,
2013-06-15 20:24:00,75.3,68.3,29.83,SSE,159,0.0,0.0,79,0.00,,,0.53,Wunderground v.1.15,2013-06-16 01:24:00,
2013-06-15 20:29:00,75.2,68.2,29.83,SSW,200,0.0,0.0,79,0.00,,,0.53,Wunderground v.1.15,2013-06-16 01:29:00,
2013-06-15 20:35:00,75.0,68.4,29.83,WNW,290,0.0,0.0,80,0.00,,,0.53,Wunderground v.1.15,2013-06-16 01:35:00,
2013-06-15 20:45:00,74.4,68.5,29.82,SSE,163,0.0,0.0,82,0.00,,,0.53,Wunderground v.1.15,2013-06-16 01:45:00,
2013-06-15 20:54:00,74.6,68.7,29.83,SW,216,1.0,4.0,82,0.00,,,0.53,Wunderground v.1.15,2013-06-16 01:54:00,
2013-06-15 20:59:00,74.6,68.7,29.84,SW,227,3.0,4.0,82,0.00,,,0.53,Wunderground v.1.15,2013-06-16 01:59:00,
2013-06-15 21:04:00,74.2,68.7,29.83,SW,217,4.0,5.0,83,0.00,,,0.53,Wunderground v.1.15,2013-06-16 02:04:00,
2013-06-15 21:14:00,74.7,69.2,29.84,SW,230,5.0,8.0,83,0.00,,,0.53,Wunderground v.1.15,2013-06-16 02:14:00,
2013-06-15 21:24:00,74.9,68.7,29.84,SW,230,9.0,19.0,81,0.00,,,0.53,Wunderground v.1.15,2013-06-16 02:24:00,
2013-06-15 21:34:00,75.2,67.5,29.84,SW,221,13.0,14.0,77,0.00,,,0.53,Wunderground v.1.15,2013-06-16 02:34:00,
2013-06-15 21:40:00,75.1,67.8,29.85,SW,224,12.0,13.0,78,0.00,,,0.53,Wunderground v.1.15,2013-06-16 02:40:00,
2013-06-15 21:50:00,74.8,67.5,29.84,SW,228,12.0,15.0,78,0.00,,,0.53,Wunderground v.1.15,2013-06-16 02:50:00,
2013-06-15 21:59:00,74.6,67.7,29.84,SW,225,12.0,15.0,79,0.00,,,0.53,Wunderground v.1.15,2013-06-16 02:59:00,
2013-06-15 22:04:00,74.4,67.8,29.84,SW,226,11.0,15.0,80,0.00,,,0.53,Wunderground v.1.15,2013-06-16 03:04:00,
2013-06-15 22:09:00,74.3,67.7,29.84,SW,232,11.0,11.0,80,0.00,,,0.53,Wunderground v.1.15,2013-06-16 03:09:00,
2013-06-15 22:19:00,74.2,68.0,29.84,SW,221,11.0,11.0,81,0.00,,,0.53,Wunderground v.1.15,2013-06-16 03:19:00,
2013-06-15 22:29:00,74.1,68.3,29.83,SW,231,13.0,13.0,82,0.00,,,0.53,Wunderground v.1.15,2013-06-16 03:29:00,
2013-06-15 22:35:00,74.1,68.6,29.83,SW,236,13.0,16.0,83,0.00,,,0.53,Wunderground v.1.15,2013-06-16 03:35:00,
2013-06-15 22:44:00,74.2,68.7,29.83,SW,233,13.0,13.0,83,0.00,,,0.53,Wunderground v.1.15,2013-06-16 03:44:00,
2013-06-15 22:50:00,74.2,68.3,29.83,SW,217,13.0,13.0,82,0.00,,,0.53,Wunderground v.1.15,2013-06-16 03:50:00,
2013-06-15 22:55:00,74.2,68.7,29.83,WSW,243,13.0,13.0,83,0.00,,,0.53,Wunderground v.1.15,2013-06-16 03:55:00,
2013-06-15 23:05:00,74.2,68.7,29.82,SW,236,12.0,14.0,83,0.00,,,0.53,Wunderground v.1.15,2013-06-16 04:05:00,
2013-06-15 23:10:00,74.2,68.7,29.82,WSW,239,12.0,12.0,83,0.00,,,0.53,Wunderground v.1.15,2013-06-16 04:10:00,
2013-06-15 23:19:00,74.2,68.7,29.81,SW,221,14.0,14.0,83,0.00,,,0.53,Wunderground v.1.15,2013-06-16 04:19:00,
2013-06-15 23:29:00,74.1,69.0,29.82,SW,236,12.0,14.0,84,0.00,,,0.53,Wunderground v.1.15,2013-06-16 04:29:00,
2013-06-15 23:34:00,74.0,69.2,29.83,West,274,12.0,14.0,85,0.00,,,0.53,Wunderground v.1.15,2013-06-16 04:34:00,
2013-06-15 23:39:00,73.8,68.7,29.83,WSW,247,11.0,11.0,84,0.00,,,0.53,Wunderground v.1.15,2013-06-16 04:39:00,
2013-06-15 23:50:00,73.6,68.8,29.84,West,276,12.0,12.0,85,0.00,,,0.53,Wunderground v.1.15,2013-06-16 04:50:00,